+ View the NASA Portal
+ Center for Near-Earth Object Studies
IMPORTANT:
The SSD Announcement email list is now available. Major changes are coming in the near future, including possible hostname and/or URL changes. To be notified of such changes, subscribe to this email list.
Please visit
this page
for more details.
Don't show this message again
JPL Small-Body Database Browser
Search:
[
help
]
214583 (2006 QL52)
Classification:
Main-belt Asteroid
SPK-ID:
2214583
[
Ephemeris
|
Orbit Diagram
|
Orbital Elements
|
Mission Design
|
Physical Parameters
|
Discovery Circumstances
|
Close-Approach Data
]
[ show orbit diagram ]
Orbital Elements at Epoch 2458600.5 (2019-Apr-27.0) TDB
Reference:
JPL 13
(heliocentric ecliptic J2000)
Element
Value
Uncertainty (1-sigma)
Units
e
.1443473672904227
5.1451e-08
a
2.406426219090721
2.0057e-08
au
q
2.059064929786329
1.268e-07
au
i
2.817495565744089
6.0969e-06
deg
node
102.5626184697685
0.00012329
deg
peri
194.9349546064024
0.00012546
deg
M
169.1650598234773
2.702e-05
deg
t
p
2457959.784221935046
(2017-Jul-25.28422194)
9.8448e-05
TDB
period
1363.506626865344
3.73
1.7047e-05
4.667e-08
d
yr
n
.2640251194287395
3.3008e-09
deg/d
Q
2.753787508395113
2.2952e-08
au
Orbit Determination Parameters
# obs. used (total)
263
data-arc span
8511 days (23.30 yr)
first obs. used
1995-09-18
last obs. used
2019-01-06
planetary ephem.
DE431
SB-pert. ephem.
SB431-N16
condition code
0
norm. resid. RMS
.56406
source
ORB
producer
Otto Matic
solution date
2019-Jul-14 07:37:04
Additional Information
Earth MOID
= 1.04264 au
Jupiter MOID
= 2.43131 au
T_jup
= 3.507
[ show covariance matrix ]
[
Ephemeris
|
Orbit Diagram
|
Orbital Elements
|
Mission Design
|
Physical Parameters
|
Discovery Circumstances
|
Close-Approach Data
]
Physical Parameter Table
Parameter
Symbol
Value
Units
Sigma
Reference
Notes
absolute magnitude
H
16.7
n/a
MPO433403
diameter
diameter
1.747
km
0.294
urn:nasa:pds:neowise_diameters_albedos::2.0[mainbelt] (http://adsabs.harvard.edu/abs/2011ApJ...741...68M)
geometric albedo
albedo
0.101
0.048
urn:nasa:pds:neowise_diameters_albedos::2.0[mainbelt] (http://adsabs.harvard.edu/abs/2011ApJ...741...68M)
214583 (2006 QL52)
Discovered 2006-Aug-23 by NEAT at Palomar
Reference:
20090509/Numbers.arc
Last Updated:
2009-05-11
[ show close-approach data ]
[
Ephemeris
|
Orbit Diagram
|
Orbital Elements
|
Mission Design
|
Physical Parameters
|
Discovery Circumstances
|
Close-Approach Data
]
2019-Dec-16 00:14 UT
(server date/time)
Site Manager:
Ryan S. Park
Webmaster
:
Alan B. Chamberlin